Regional Weather Roundup
Issued by NWS Wakefield, VA

Home | Current Version | Previous Version | Text Only | Print | Product List | Glossary Off
Versions: 1 2 3 4 5 6 7 8 9 10 11 12 13 14 15 16 17 18 19 20 21 22 23 24 25 26 27 28 29 30 31 32 33 34 35 36 37 38 39 40 41 42 43 44 45 46 47 48 49 50

000
ASUS41 KAKQ 060810
RWRAKQ

REGIONAL WEATHER ROUNDUP
NATIONAL WEATHER SERVICE WAKEFIELD VA
300 AM EST FRI MAR 06 2015

Note: "fair" indicates few or no clouds below 12,000 feet with no
significant weather and/or obstructions to visibility. * = Denotes
station may not report precipitation (e.g., rain,snow,etc.),
thunder or fog.

VAZ042-051-052>054-056-060900-
NORTHERN VIRGINIA

CITY           SKY/WX    TMP DP  RH WIND       PRES   REMARKS
WASH NATIONAL  CLEAR     19   4  51 N14       30.50S WCI   6
DULLES         PTCLDY    15   1  53 NW12      30.49R WCI   2
FORT BELVOIR   CLEAR     17   4  56 NW5       30.50R
QUANTICO       CLEAR     19   5  54 N13G24    30.51S WCI   6
FREDERICKSBRG* PTCLDY    18  10  71 CALM      30.49S
STAFFORD*      CLEAR     14   3  63 CALM      30.52F
WARRENTON      CLEAR     16   8  71 N10       30.47S WCI   4
CULPEPER*      PTCLDY    18   3  53 NE7G16    30.48F
MANASSAS*      PTCLDY    14   7  73 N8        30.50R
LEESBURG*      PTCLDY    16   5  62 E5        30.50R
WINCHESTER     PTCLDY    12  -2  52 CALM      30.47F
FRONT ROYAL*   FAIR      12   3  67 CALM      30.45F
LURAY*         FAIR       7   5  92 CALM      30.43F
$$

VAZ048-049-060>072-079>083-060900-
CENTRAL AND SOUTH CENTRAL VIRGINIA

CITY           SKY/WX    TMP DP  RH WIND       PRES   REMARKS
RICHMOND       CLEAR     20  11  68 N13       30.45S WCI   7
CHESTERFIELD*  FAIR      19   1  45 N13       30.46R WCI   7
PETERSBURG*    CLEAR     23  11  61 N9G20     30.46R
HANOVER        PTCLDY    19   8  62 N6        30.48R
TAPPAHANNOCK*  PTCLDY    20   8  58 NW8G16    30.46S
QUINTON*       FAIR      20  12  72 N7        30.45S
CHARLOTTSVILLE PTCLDY    15   6  67 E7        30.43F
GORDONSVILLE*  FAIR      12   5  74 CALM      30.45S
ORANGE*        PTCLDY    18   9  68 N6        30.47S
LOUISA*        PTCLDY    16   9  73 NE6       30.44S
BUMPASS*       FAIR      17   8  67 N6        30.47R
FARMVILLE*     CLEAR     21  21 100 NE5         N/A
CREWE*         FAIR      21  16  80 N3        30.44R
FORT PICKETT*  FAIR      20  16  84 N10       30.43R WCI   9
CHASE CITY*    FAIR      25  22  89 N5        30.41S
CLARKSVILLE*   FAIR      27  21  80 N9        30.41R
SOUTH HILL*    CLEAR     24  18  78 N10       30.47R WCI  13
LAWRENCEVILLE* FAIR      23  18  78 CALM      30.42R
EMPORIA*       CLEAR     25  12  58 NW16G26   30.45R WCI  12
$$

VAZ088>098-060900-
SOUTHEAST VIRGINIA

CITY           SKY/WX    TMP DP  RH WIND       PRES   REMARKS
NORFOLK        CLOUDY    27  17  66 N17G31    30.40R WCI  14
VIRGINIA BEACH CLOUDY    28  21  75 N24       30.39R WCI  14
NORFOLK NAVAL  MOCLDY    28  16  60 N24G31    30.42S WCI  14
WEST POINT*    CLEAR     23  15  69 NW8       30.47R
SALUDA*        FAIR      22  14  71 N13       30.43S WCI  10
NEWPORT NEWS   PTCLDY    26  16  65 N10G21    30.42R WCI  16
LANGLEY AFB    PTCLDY    25  16  70 N12G22    30.41R WCI  14
FORT EUSTIS    CLEAR     24  17  74 NE10G23   30.41R WCI  14
WILLIAMSBURG*    N/A    N/A N/A N/A MISG      30.42S
HR EXEC AP*      N/A    N/A N/A N/A MISG        N/A
FRANKLIN*      CLOUDY    25  19  76 N12G18    30.42R WCI  14
WAKEFIELD      CLEAR     24  15  68 N10G18    30.43R WCI  14
$$

VAZ020-022-025-037-045-060900-
WEST CENTRAL AND SOUTHWEST VIRGINIA

CITY           SKY/WX    TMP DP  RH WIND       PRES   REMARKS
STAUNTON*      PTCLDY     8   3  80 CALM      30.42S
WAYNESBORO*    FAIR       9   5  85 N6        30.37S
HOT SPRINGS VA MOCLDY     5   3  93 NW8       30.14F
LYNCHBURG      PTCLDY    20  14  77 NW6       30.41R
DANVILLE       MOCLDY    27  19  72 N7        30.41R
SOUTH BOSTON*  CLOUDY    27  21  79 NE7       30.42R
MARTINSVILLE   PTCLDY    22  14  71 N7        30.43R
ROANOKE        PTCLDY    16   8  71 W6        30.43R
BLACKSBURG     MOCLDY    10   6  84 CALM      30.38R
DUBLIN*        FLURRIES  16  11  82 NW3       30.37R
MARION*        FLURRIES  14   8  78 W5        30.35S
HILLSVILLE*    FLURRIES  14  11  87 N6        30.29S
RICHLANDS*     LGT SNOW  12   7  81 N3        30.33R
WISE*          FLURRIES  12   9  85 N6        30.34S
ABINGDON*      FLURRIES  18  13  82 N3        30.37S
$$

MDZ021>025-VAZ099-100-060900-
SOUTHERN MARYLAND AND THE DELMARVA PENINSULA

CITY           SKY/WX    TMP DP  RH WIND       PRES   REMARKS
PATUXENT RIVER CLEAR     19   9  65 NW17      30.46R WCI   4
BAY BRIDGE APT   N/A     21   7  53 N14G21    30.48R WCI   8
LEONARDTOWN    CLEAR     19   9  63 CALM      30.47S
DOVER          CLEAR     15   7  69 NW10      30.45R WCI   2
GEORGETOWN     FLURRIES  18   9  68 N6        30.44R
EASTON         CLEAR     21   9  60 N6        30.49R
CAMBRIDGE      CLEAR     23  10  58 N12G17    30.45R WCI  12
SALISBURY      FAIR      21  11  65 N12       30.43R WCI   9
OCEAN CITY     CLEAR     20  10  65 N12       30.42R WCI   8
WALLOPS ISLAND CLEAR     21  12  68 N14       30.42R WCI   8
ACCOMACK*      PTCLDY    23  12  63 N15G24    30.41R WCI  10
$$

NCZ012>017-030>032-060900-
NORTH CENTRAL AND EASTERN NORTH CAROLINA

CITY           SKY/WX    TMP DP  RH WIND       PRES   REMARKS
ROANOKE RAPIDS CLOUDY    28  21  74 N10       30.40S WCI  19
RALEIGH        MOCLDY    30  21  69 NE6       30.38R
ELIZABETH CITY CLOUDY    28  22  78 N23G31    30.37S WCI  14
AHOSKIE*       MOCLDY    26  16  64 N8G18     30.41R
EDENTON*       CLOUDY    30  26  88 N12G18    30.36S WCI  20
CURRITUCK*     CLOUDY    28  23  79 N16G23    30.37F WCI  17
KILL DEVIL HLS CLOUDY    28  24  86 N15G25    30.34R WCI  16
MANTEO         CLOUDY    28  24  82 N18G28    30.36R WCI  16
CAPE HATTERAS  FRZ RAIN  31  29  92 N21G35    30.30R WCI  18
TARBORO*       CLOUDY    30  24  77 N13       30.40R WCI  20
GOLDSBORO      CLOUDY    31  31  97 N20G28    30.34R WCI  19
WASHINGTON     CLOUDY    30  24  77 N15G21    30.36S WCI  19
GREENVILLE     CLOUDY    30  25  80 N16       30.38R WCI  19
NEW BERN       CLOUDY    32  28  85 N18       30.33S WCI  20
WILMINGTON     CLOUDY    34  30  85 N12       30.31R
$$

VAZ048-060900-
ELSEWHERE

CITY           SKY/WX    TMP DP  RH WIND       PRES   REMARKS
HARRISBURG PA  CLEAR      9   1  70 CALM      30.49R
BALTIMORE      CLEAR     14   4  64 NW7       30.48R
ANNAPOLIS      CLEAR     20   9  62 NW14      30.48R WCI   7
ANDREWS AFB    CLEAR     15   4  61 NW9       30.46R
PHILADELPHIA   CLEAR     15   3  59 N15       30.48R WCI   0
HENDERSON NC   PTCLDY    26  20  76 CALM      30.39S
GREENSBORO     PTCLDY    25  17  72 N7        30.36S
ROCKY MOUNT    CLOUDY    30  22  72 N14G21    30.39R WCI  19
$$

VAZ100-060900-
MARINE

STATION/POSITION TIME  TEMP    WIND        PRES    WAVE   SWELL
                       AIR SEA DIR/SP/G            HT/PER HT/PER
                 (UTC) (F)     (DEG/KT/KT) (MB)    (FT/S) (FT/S)
BRANDYWINE LGT   0800   20 30   10/ 27/ 31 1030.6R
CAPE MAY NJ      0800   19 31  360/ 11/ 20 1030.2R
LEWES DE         0800   22 29  360/ 25/ 32 1030.6R
15NM E FENWICK I 0800   24 35              1028.9R   8/ 6
OCEAN-CITY-INLET 0800   22 32  360/ 17/ 22 1029.3F
WACHAPREAGUE VA  0800   23 37   10/ 12/ 18 1029.6R
THOMAS POINT MD  0800          140/ 17/ 21   N/A
COVE POINT MD    0800   21     360/ 19/ 25 1031.0R
SOLOMONS ISLAND  0800      32                N/A
BISHOPS HEAD MD  0800   21 31  350/  8/ 12 1030.2S
CAMBRIDGE MD     0800   22 32  350/ 15/ 19 1031.0F
LEWISETTA VA     0800   22 33  350/ 12/ 18 1031.1R
RAPPAHANNOCK LGT 0800          360/ 29/ 32 1030.0S
STINGRAY PT      0800   25     360/ 19/ 23   N/A
YORK RVR RNG VA  0800   26      10/ 23/ 27 1028.6F
YORKTOWN VA      0800   25 34  350/ 13/ 15 1029.8F
DOMINION TERM VA 0800   26     360/ 14/ 19 1030.0R
KIPTOPEKE VA     0800      39   20/ 16/ 22   N/A
CHES BAY BRIDGE  0800   27 34  350/ 24/ 31 1028.9R
CAPE HENRY VA    0800   27     350/ 30/ 35 1027.6R
CHESAPEAKE LGHT  0700   27      10/ 28/ 32 1028.4R
WILLOUBY STN VA  0800   26      10/ 17/ 21 1030.0R
S CRANEY ISL VA  0800           10/ 17/ 20 1029.5R
CAPE HENRY BUOY  0800      35                N/A     8/ 7
1ST LANDING BUOY 0800   27     360/ 25/ 31 1028.5S
OFFSHORE WE BUOY 0800      36                N/A    10/ 7   3/11
64NM E OF VA BCH 0800   34 53   10/ 29/ 35 1025.6R  12/ 9   7/ 9
DUCK PIER NC     0800   29 36   10/ 24/ 30 1026.3R
44100 DUCK FRF   0700      38                N/A    10/ 7   2/11
44056 DUCK FRF   0800      35                N/A    10/ 8   2/11
OREGON INLET NC  0800   29 41  350/ 21/ 27 1026.7F
HATTERAS NC      0800      48   10/ 29/ 36 1026.0R
CAPE LOOKOUT NC  0800           10/ 21/ 26 1026.0R
$$


USA.gov is the U.S. government's official web portal to all federal, state and local government web resources and services.